Date String (YYYY-MM-DD hh:mm:ss) UTC,Instrument flags,Ambient pressure (hPa),Sample flow (lpm),Bypass flow (lpm),Sample temperature (°C),Ambient temperature (°C),ASC tube jacket temperature (°C),LED temperature (°C),Box temperature (°C),Sample RH (%),Span deviation,Mass concentration (μg/m³),Mass concentration (μg/m³),Mass concentration (μg/m³)
DateTimeUTC,F1_M11,P_M11,Q1_M11,Q2_M11,T1_M11,T2_M11,T3_M11,T4_M11,T5_M11,U1_M11,ZSPAN_M11,X0_M11,X2_M11,X1_M11
2022-09-18 15:00:00,,0826.5,5.01,0.00,30.6,29.1,00.0,39.4,32.4,22.2,0000.6,0010.53,0006.05,0005.48
2022-09-18 15:01:00,,0826.6,5.00,0.00,30.7,29.2,00.0,39.4,32.4,22.2,0000.4,0011.02,0006.11,0005.54
2022-09-18 15:02:00,,0826.7,4.99,0.00,30.7,29.2,00.0,39.4,32.4,22.7,0000.5,0010.96,0006.13,0005.59
2022-09-18 15:03:00,,0826.7,5.01,0.00,30.7,29.3,00.0,39.4,32.4,22.3,0000.6,0011.00,0006.17,0005.64
2022-09-18 15:04:00,,0826.7,4.99,0.00,30.7,29.3,00.0,39.4,32.5,22.3,0000.5,0011.10,0006.23,0005.68
2022-09-18 15:05:00,,0826.7,5.01,0.00,30.7,29.4,00.0,39.4,32.5,22.4,0000.3,0011.97,0006.24,0005.68
2022-09-18 15:06:00,,0826.6,4.99,0.00,30.7,29.4,00.0,39.5,32.5,22.3,-000.1,0012.43,0006.21,0005.69
2022-09-18 15:07:00,,0826.7,5.01,0.00,30.7,29.4,00.0,39.5,32.5,22.2,-000.1,0012.11,0006.19,0005.70
2022-09-18 15:08:00,,0826.7,5.00,0.00,30.8,28.7,00.0,39.5,32.6,22.4,0000.0,0012.15,0006.17,0005.69
2022-09-18 15:09:00,,0826.7,5.00,0.00,30.8,27.5,00.0,39.4,32.5,22.7,0000.0,0012.18,0006.19,0005.69
2022-09-18 15:10:00,,0826.7,5.00,0.00,30.7,27.2,00.0,39.4,32.4,22.7,0000.2,0012.25,0006.21,0005.70
2022-09-18 15:11:00,,0826.6,5.00,0.00,30.6,27.4,00.0,39.3,32.3,22.4,0000.1,0012.42,0006.20,0005.69
2022-09-18 15:12:00,,0826.5,5.00,0.00,30.5,27.7,00.0,39.3,32.1,22.6,0000.0,0011.82,0006.18,0005.69
2022-09-18 15:13:00,,0826.6,5.00,0.00,30.5,28.0,00.0,39.3,32.1,22.7,-000.2,0011.69,0006.20,0005.70
2022-09-18 15:14:00,,0826.7,5.01,0.00,30.5,28.2,00.0,39.2,32.1,23.0,-000.3,0011.85,0006.24,0005.71
2022-09-18 15:15:00,,0826.7,4.98,0.00,30.5,28.4,00.0,39.2,32.1,22.8,-000.1,0011.81,0006.22,0005.72
2022-09-18 15:16:00,,0826.7,5.01,0.00,30.5,28.6,00.0,39.2,32.2,22.8,0000.1,0011.04,0006.20,0005.72
2022-09-18 15:17:00,,0826.8,5.00,0.00,30.4,28.7,00.0,39.2,32.2,22.9,0000.4,0010.04,0006.18,0005.71
2022-09-18 15:18:00,,0826.7,4.99,0.00,30.5,28.8,00.0,39.2,32.2,22.7,0000.7,0010.08,0006.22,0005.71
2022-09-18 15:19:00,,0826.7,5.01,0.00,30.5,28.9,00.0,39.2,32.2,22.7,0000.8,0010.11,0006.24,0005.72
2022-09-18 15:20:00,,0826.7,5.00,0.00,30.5,29.0,00.0,39.2,32.3,22.8,0000.9,0010.04,0006.23,0005.73
2022-09-18 15:21:00,,0826.7,5.00,0.00,30.5,29.0,00.0,39.2,32.3,22.8,0000.9,0009.95,0006.23,0005.76
2022-09-18 15:22:00,,0826.7,5.01,0.00,30.5,29.1,00.0,39.2,32.3,22.7,0001.2,0009.81,0006.26,0005.78
2022-09-18 15:23:00,,0826.7,5.00,0.00,30.5,29.1,00.0,39.2,32.3,22.8,0001.3,0009.56,0006.27,0005.79
2022-09-18 15:24:00,,0826.7,5.01,0.00,30.5,29.2,00.0,39.2,32.3,22.8,0001.8,0009.54,0006.27,0005.78
2022-09-18 15:25:00,,0826.8,4.99,0.00,30.6,29.3,00.0,39.3,32.4,22.8,0001.9,0009.53,0006.26,0005.78
2022-09-18 15:26:00,,0826.8,5.01,0.00,30.6,29.3,00.0,39.3,32.4,23.0,0001.5,0009.86,0006.29,0005.77
2022-09-18 15:27:00,,0826.8,5.00,0.00,30.6,29.3,00.0,39.3,32.4,22.8,0001.1,0010.00,0006.36,0005.82
2022-09-18 15:28:00,,0826.8,5.01,0.00,30.6,29.3,00.0,39.3,32.4,22.8,0000.9,0010.21,0006.38,0005.87
2022-09-18 15:29:00,,0826.8,4.99,0.00,30.7,29.3,00.0,39.3,32.4,22.7,0001.2,0010.77,0006.41,0005.90
2022-09-18 15:30:00,,0826.9,5.01,0.00,30.7,28.5,00.0,39.3,32.5,22.5,0001.3,0011.49,0006.42,0005.92
2022-09-18 15:31:00,,0826.9,5.01,0.00,30.6,27.2,00.0,39.3,32.4,22.8,0001.3,0011.45,0006.43,0005.92
2022-09-18 15:32:00,,0827.0,4.99,0.00,30.6,27.0,00.0,39.2,32.3,22.9,0001.2,0012.01,0006.48,0005.95
2022-09-18 15:33:00,,0826.9,5.00,0.00,30.5,27.3,00.0,39.2,32.1,23.1,0000.9,0012.20,0006.49,0005.96
2022-09-18 15:34:00,,0826.8,4.98,0.00,30.4,27.6,00.0,39.2,32.1,23.2,0000.6,0012.37,0006.51,0005.98
2022-09-18 15:35:00,,0826.7,4.99,0.00,30.4,27.9,00.0,39.1,32.1,23.0,0000.1,0012.43,0006.57,0006.02
2022-09-18 15:36:00,,0826.7,5.01,0.00,30.4,28.2,00.0,39.1,32.1,23.1,0000.1,0012.35,0006.60,0006.07
2022-09-18 15:37:00,,0827.0,5.00,0.00,30.4,28.4,00.0,39.1,32.1,23.1,0000.4,0012.06,0006.59,0006.09
2022-09-18 15:38:00,,0826.8,5.02,0.00,30.4,28.5,00.0,39.1,32.1,22.9,0000.1,0011.91,0006.57,0006.11
2022-09-18 15:39:00,,0826.8,5.00,0.00,30.4,28.7,00.0,39.1,32.1,23.1,0000.1,0011.87,0006.53,0006.08
2022-09-18 15:40:00,,0827.0,4.99,0.00,30.4,28.8,00.0,39.1,32.2,23.0,0000.5,0011.58,0006.54,0006.07
2022-09-18 15:41:00,,0826.9,5.00,0.00,30.4,28.9,00.0,39.1,32.2,22.9,0000.5,0010.99,0006.52,0006.05
2022-09-18 15:42:00,,0826.9,5.01,0.00,30.4,29.0,00.0,39.1,32.2,22.8,0000.1,0010.35,0006.50,0006.03
2022-09-18 15:43:00,,0826.9,5.00,0.00,30.4,29.1,00.0,39.1,32.3,22.9,-000.3,0011.03,0006.48,0006.02
2022-09-18 15:44:00,,0826.8,5.00,0.00,30.5,29.1,00.0,39.1,32.3,22.9,-000.1,0011.01,0006.44,0005.98
2022-09-18 15:45:00,,0826.8,5.00,0.00,30.5,29.2,00.0,39.2,32.3,22.9,0000.3,0010.95,0006.45,0005.95
2022-09-18 15:46:00,,0826.9,4.99,0.00,30.5,29.2,00.0,39.2,32.3,22.9,0000.5,0011.23,0006.48,0005.95
2022-09-18 15:47:00,,0827.2,5.01,0.00,30.5,29.3,00.0,39.2,32.4,23.0,0000.4,0011.39,0006.48,0005.93
2022-09-18 15:48:00,,0827.0,4.99,0.00,30.6,29.4,00.0,39.2,32.4,22.6,0000.2,0011.50,0006.51,0005.94
2022-09-18 15:49:00,,0827.0,5.00,0.00,30.6,29.2,00.0,39.2,32.4,22.7,0000.2,0011.87,0006.54,0005.96
2022-09-18 15:50:00,,0827.0,5.00,0.00,30.6,28.1,00.0,39.2,32.4,22.9,0000.7,0013.12,0006.57,0005.95
2022-09-18 15:51:00,,0826.9,5.00,0.00,30.5,27.0,00.0,39.2,32.3,23.1,0000.3,0013.27,0006.58,0005.95
2022-09-18 15:52:00,,0827.0,4.99,0.00,30.5,27.0,00.0,39.1,32.2,23.1,-000.1,0013.27,0006.60,0005.95
2022-09-18 15:53:00,,0827.0,5.00,0.00,30.4,27.3,00.0,39.1,32.0,23.2,-000.4,0013.14,0006.57,0005.96
2022-09-18 15:54:00,,0827.0,5.01,0.00,30.3,27.6,00.0,39.0,32.0,23.3,-000.1,0012.56,0006.59,0005.96
2022-09-18 15:55:00,,0827.0,5.00,0.00,30.3,27.9,00.0,39.0,32.0,23.2,-000.2,0012.15,0006.61,0005.95
2022-09-18 15:56:00,,0827.0,5.00,0.00,30.3,28.2,00.0,39.0,32.0,23.4,-000.7,0012.31,0006.58,0005.94
2022-09-18 15:57:00,,0827.0,5.01,0.00,30.3,28.4,00.0,39.0,32.0,23.1,-000.6,0013.24,0006.57,0005.95
2022-09-18 15:58:00,,0827.1,4.99,0.00,30.3,28.6,00.0,39.0,32.1,23.3,-000.3,0013.62,0006.52,0005.92
2022-09-18 15:59:00,,0827.0,5.01,0.00,30.3,28.7,00.0,39.0,32.1,23.2,-000.1,0013.50,0006.47,0005.88
